| time (UTC) | temp F | wind direction | speed knots | gust knots | rain 1hr in | rain 24hr in | rain mn in | humidity % | barometer mb |
| 20260505100827 | 60 | 282 | 1.7 | 4.3 | 0.00 | 0.00 | 0.01 | 77 | 1006.3 |
| 20260505100147 | 60 | 220 | 3.5 | 4.3 | 0.00 | 0.00 | 0.00 | 75 | 1006.3 |
| 20260505095507 | 60 | 184 | 1.7 | 3.5 | 0.00 | 0.00 | 0.00 | 75 | 1006.3 |
| 20260505094827 | 61 | 192 | 1.7 | 4.3 | 0.00 | 0.00 | 0.00 | 72 | 1006.3 |
| 20260505094358 | 61 | 185 | 3.5 | 4.3 | 0.00 | 0.00 | 0.00 | 71 | 1006.3 |
| 20260505093507 | 61 | 205 | 2.6 | 3.5 | 0.00 | 0.00 | 0.00 | 71 | 1006.3 |
| 20260505093039 | 61 | 186 | 1.7 | 3.5 | 0.00 | 0.00 | 0.00 | 70 | 1006.3 |
| 20260505092400 | 61 | 165 | 1.7 | 2.6 | 0.00 | 0.00 | 0.00 | 71 | 1006.3 |
| 20260505091721 | 61 | 137 | 0.9 | 2.6 | 0.00 | 0.00 | 0.00 | 70 | 1006.0 |
| 20260505090827 | 61 | 115 | 1.7 | 2.6 | 0.00 | 0.00 | 0.00 | 70 | 1005.6 |
| 20260505090147 | 61 | 122 | 0.9 | 1.7 | 0.00 | 0.00 | 0.00 | 69 | 1005.6 |
| 20260505085507 | 61 | 125 | 0.9 | 2.6 | 0.00 | 0.00 | 0.00 | 69 | 1005.6 |
| 20260505084827 | 61 | 162 | 1.7 | 2.6 | 0.00 | 0.00 | 0.00 | 70 | 1005.6 |
| 20260505084147 | 61 | 156 | 0.9 | 2.6 | 0.00 | 0.00 | 0.00 | 71 | 1005.6 |
| 20260505083507 | 61 | 159 | 1.7 | 2.6 | 0.00 | 0.00 | 0.00 | 71 | 1005.6 |
| 20260505082827 | 61 | 109 | 0.9 | 2.6 | 0.00 | 0.00 | 0.00 | 71 | 1005.6 |
| 20260505082147 | 61 | 50 | 1.7 | 2.6 | 0.00 | 0.00 | 0.00 | 71 | 1005.3 |
| 20260505081507 | 61 | 55 | 1.7 | 1.7 | 0.00 | 0.00 | 0.00 | 70 | 1005.6 |
| 20260505080827 | 62 | 84 | 0.9 | 1.7 | 0.00 | 0.00 | 0.00 | 68 | 1005.3 |
| 20260505080147 | 62 | 129 | 0.9 | 1.7 | 0.00 | 0.00 | 0.00 | 67 | 1005.6 |
| 20260505075718 | 63 | 187 | 0.9 | 2.6 | 0.00 | 0.00 | 0.00 | 66 | 1006.0 |
| 20260505074827 | 63 | 184 | 0.9 | 5.2 | 0.00 | 0.00 | 0.00 | 64 | 1006.0 |
| 20260505074612 | 63 | 238 | 1.7 | 6.1 | 0.00 | 0.00 | 0.00 | 64 | 1006.0 |
| 20260505073507 | 63 | 214 | 3.5 | 6.1 | 0.00 | 0.00 | 0.00 | 64 | 1005.6 |
| 20260505073041 | 63 | 220 | 4.3 | 7.0 | 0.00 | 0.00 | 0.00 | 64 | 1006.0 |
| 20260505072356 | 63 | 233 | 2.6 | 7.0 | 0.00 | 0.00 | 0.00 | 64 | 1006.0 |
| 20260505071507 | 63 | 217 | 4.3 | 6.1 | 0.00 | 0.00 | 0.00 | 64 | 1006.0 |
| 20260505071038 | 63 | 237 | 2.6 | 7.0 | 0.00 | 0.00 | 0.00 | 64 | 1006.0 |
| 20260505070611 | 63 | 225 | 3.5 | 6.1 | 0.00 | 0.00 | 0.00 | 64 | 1006.0 |
| 20260505065932 | 63 | 223 | 2.6 | 7.0 | 0.00 | 0.00 | 0.00 | 65 | 1006.0 |
| 20260505064827 | 63 | 236 | 2.6 | 6.1 | 0.00 | 0.00 | 0.00 | 65 | 1006.0 |
| 20260505064147 | 63 | 218 | 2.6 | 5.2 | 0.00 | 0.00 | 0.00 | 65 | 1006.0 |
| 20260505063507 | 63 | 212 | 3.5 | 6.1 | 0.00 | 0.00 | 0.00 | 65 | 1006.0 |
| 20260505062827 | 63 | 202 | 2.6 | 7.0 | 0.00 | 0.00 | 0.00 | 65 | 1006.3 |
| 20260505062147 | 63 | 210 | 3.5 | 6.1 | 0.00 | 0.00 | 0.00 | 65 | 1006.0 |
| 20260505061507 | 63 | 210 | 3.5 | 5.2 | 0.00 | 0.00 | 0.00 | 66 | 1006.3 |
| 20260505060827 | 63 | 198 | 2.6 | 5.2 | 0.00 | 0.00 | 0.00 | 65 | 1006.3 |
| 20260505060147 | 63 | 193 | 3.5 | 5.2 | 0.00 | 0.00 | 0.00 | 64 | 1006.7 |
| 20260505055507 | 63 | 198 | 2.6 | 5.2 | 0.00 | 0.00 | 0.00 | 64 | 1007.0 |
| 20260505055040 | 63 | 193 | 2.6 | 5.2 | 0.00 | 0.00 | 0.00 | 64 | 1007.0 |
| 20260505054147 | 63 | 191 | 3.5 | 5.2 | 0.00 | 0.00 | 0.00 | 63 | 1007.0 |
| 20260505053507 | 64 | 191 | 2.6 | 7.0 | 0.00 | 0.00 | 0.00 | 63 | 1007.0 |
| 20260505052827 | 64 | 188 | 3.5 | 6.1 | 0.00 | 0.00 | 0.00 | 62 | 1007.0 |
| 20260505052147 | 64 | 195 | 4.3 | 5.2 | 0.00 | 0.00 | 0.00 | 61 | 1007.0 |
| 20260505051931 | 65 | 205 | 2.6 | 5.2 | 0.00 | 0.00 | 0.00 | 60 | 1007.0 |
| 20260505051252 | 65 | 212 | 4.3 | 8.7 | 0.00 | 0.00 | 0.00 | 60 | 1007.4 |
| 20260505050147 | 65 | 220 | 4.3 | 8.7 | 0.00 | 0.00 | 0.00 | 59 | 1007.4 |
| 20260505041507 | 66 | 224 | 3.5 | 7.0 | 0.00 | 0.00 | 0.00 | 57 | 1007.7 |
| 20260505040827 | 66 | 228 | 3.5 | 8.7 | 0.00 | 0.00 | 0.00 | 57 | 1007.7 |
| 20260505040400 | 66 | 228 | 5.2 | 7.8 | 0.00 | 0.00 | 0.00 | 57 | 1007.7 |
| 20260505035721 | 66 | 228 | 3.5 | 7.8 | 0.00 | 0.00 | 0.00 | 57 | 1007.7 |
| 20260505034827 | 67 | 249 | 2.6 | 9.6 | 0.00 | 0.00 | 0.00 | 56 | 1008.1 |
| 20260505034610 | 67 | 224 | 2.6 | 9.6 | 0.00 | 0.00 | 0.00 | 56 | 1008.1 |
| 20260505033507 | 67 | 248 | 2.6 | 8.7 | 0.00 | 0.00 | 0.00 | 55 | 1008.1 |
| 20260505032827 | 68 | 233 | 4.3 | 10.4 | 0.00 | 0.00 | 0.00 | 54 | 1008.1 |
| 20260505032359 | 68 | 235 | 5.2 | 10.4 | 0.00 | 0.00 | 0.00 | 54 | 1008.1 |
| 20260505031507 | 68 | 231 | 5.2 | 10.4 | 0.00 | 0.00 | 0.00 | 53 | 1008.1 |
| 20260505030827 | 68 | 226 | 6.1 | 10.4 | 0.00 | 0.00 | 0.00 | 53 | 1007.7 |
| 20260505030147 | 68 | 223 | 6.1 | 9.6 | 0.00 | 0.00 | 0.00 | 52 | 1007.7 |
| 20260505025507 | 68 | 226 | 7.0 | 10.4 | 0.00 | 0.00 | 0.00 | 52 | 1007.7 |
| 20260505024827 | 69 | 229 | 5.2 | 10.4 | 0.00 | 0.00 | 0.00 | 52 | 1007.7 |
| 20260505024147 | 69 | 222 | 4.3 | 11.3 | 0.00 | 0.00 | 0.00 | 52 | 1007.7 |
| 20260505023718 | 69 | 215 | 6.1 | 8.7 | 0.00 | 0.00 | 0.00 | 51 | 1007.4 |
| 20260505022827 | 69 | 211 | 5.2 | 8.7 | 0.00 | 0.00 | 0.00 | 51 | 1007.4 |
| 20260505022147 | 69 | 233 | 3.5 | 7.8 | 0.00 | 0.00 | 0.00 | 51 | 1007.4 |
| 20260505021720 | 69 | 230 | 4.3 | 7.0 | 0.00 | 0.00 | 0.00 | 50 | 1007.0 |
| 20260505020827 | 69 | 232 | 3.5 | 10.4 | 0.00 | 0.00 | 0.00 | 50 | 1007.0 |
| 20260505020147 | 70 | 237 | 5.2 | 10.4 | 0.00 | 0.00 | 0.00 | 49 | 1007.0 |
| 20260505015507 | 70 | 225 | 3.5 | 8.7 | 0.00 | 0.00 | 0.00 | 49 | 1006.7 |
| 20260505015038 | 70 | 220 | 4.3 | 9.6 | 0.00 | 0.00 | 0.00 | 49 | 1006.7 |
| 20260505014147 | 70 | 219 | 4.3 | 8.7 | 0.00 | 0.00 | 0.00 | 48 | 1006.3 |
| 20260505013507 | 71 | 213 | 5.2 | 8.7 | 0.00 | 0.00 | 0.00 | 47 | 1006.7 |
| 20260505012827 | 71 | 211 | 5.2 | 7.8 | 0.00 | 0.00 | 0.00 | 46 | 1006.3 |
| 20260505012147 | 72 | 227 | 4.3 | 11.3 | 0.00 | 0.00 | 0.00 | 46 | 1006.3 |
| 20260505011507 | 72 | 224 | 6.1 | 12.2 | 0.00 | 0.00 | 0.00 | 45 | 1006.3 |
| 20260505011037 | 72 | 236 | 5.2 | 12.2 | 0.00 | 0.00 | 0.00 | 45 | 1006.3 |
| 20260505010147 | 72 | 227 | 4.3 | 15.6 | 0.00 | 0.00 | 0.00 | 45 | 1006.3 |
| 20260505005507 | 73 | 229 | 5.2 | 10.4 | 0.00 | 0.00 | 0.00 | 44 | 1006.3 |
| 20260505005252 | 73 | 231 | 6.1 | 13.0 | 0.00 | 0.00 | 0.00 | 44 | 1006.3 |
| 20260505004147 | 74 | 224 | 6.1 | 13.0 | 0.00 | 0.00 | 0.00 | 43 | 1006.3 |
| 20260505003507 | 74 | 227 | 7.0 | 12.2 | 0.00 | 0.00 | 0.00 | 42 | 1006.3 |
| 20260505002827 | 75 | 222 | 7.0 | 12.2 | 0.00 | 0.00 | 0.00 | 41 | 1006.3 |
| 20260505002147 | 75 | 235 | 7.0 | 13.0 | 0.00 | 0.00 | 0.00 | 41 | 1006.3 |
| 20260505001716 | 75 | 237 | 4.3 | 16.5 | 0.00 | 0.00 | 0.00 | 41 | 1006.3 |
| 20260505001250 | 76 | 230 | 6.1 | 17.4 | 0.00 | 0.00 | 0.00 | 40 | 1006.0 |
| 20260505000147 | 76 | 216 | 11.3 | 17.4 | 0.00 | 0.00 | 0.00 | 39 | 1006.0 |
| 20260504235507 | 76 | 226 | 11.3 | 17.4 | 0.00 | 0.00 | 0.00 | 38 | 1006.0 |
| 20260504234827 | 77 | 240 | 7.0 | 18.2 | 0.00 | 0.00 | 0.00 | 39 | 1006.0 |
| 20260504234147 | 77 | 234 | 7.8 | 18.2 | 0.00 | 0.00 | 0.00 | 38 | 1006.0 |
| 20260504233507 | 77 | 248 | 6.1 | 16.5 | 0.00 | 0.00 | 0.00 | 37 | 1006.0 |
| 20260504233036 | 77 | 247 | 5.2 | 18.2 | 0.00 | 0.00 | 0.00 | 36 | 1006.3 |
| 20260504232147 | 77 | 221 | 9.6 | 18.2 | 0.00 | 0.00 | 0.00 | 37 | 1006.3 |
| 20260504231507 | 78 | 216 | 10.4 | 17.4 | 0.00 | 0.00 | 0.00 | 36 | 1006.3 |
| 20260504230827 | 78 | 251 | 7.8 | 17.4 | 0.00 | 0.00 | 0.00 | 36 | 1006.3 |
| 20260504230147 | 78 | 234 | 9.6 | 17.4 | 0.00 | 0.00 | 0.00 | 36 | 1006.3 |
| 20260504225507 | 78 | 221 | 10.4 | 15.6 | 0.00 | 0.00 | 0.00 | 36 | 1006.3 |
| 20260504225040 | 79 | 258 | 4.3 | 19.1 | 0.00 | 0.00 | 0.00 | 35 | 1006.3 |
| 20260504224147 | 78 | 236 | 8.7 | 19.1 | 0.00 | 0.00 | 0.00 | 36 | 1006.3 |
| 20260504223507 | 78 | 236 | 9.6 | 17.4 | 0.00 | 0.00 | 0.00 | 35 | 1006.3 |
| 20260504222827 | 78 | 231 | 8.7 | 17.4 | 0.00 | 0.00 | 0.00 | 36 | 1006.3 |
| 20260504222147 | 79 | 229 | 10.4 | 20.0 | 0.00 | 0.00 | 0.00 | 35 | 1006.3 |
| 20260504221507 | 79 | 230 | 7.0 | 14.8 | 0.00 | 0.00 | 0.00 | 36 | 1006.3 |
| 20260504220827 | 79 | 247 | 5.2 | 18.2 | 0.00 | 0.00 | 0.00 | 35 | 1006.3 |
| 20260504220359 | 79 | 221 | 9.6 | 17.4 | 0.00 | 0.00 | 0.00 | 36 | 1006.3 |
| 20260504215507 | 79 | 239 | 10.4 | 20.0 | 0.00 | 0.00 | 0.00 | 35 | 1006.7 |
| 20260504215041 | 79 | 244 | 7.0 | 20.0 | 0.00 | 0.00 | 0.00 | 35 | 1006.7 |
| 20260504214147 | 79 | 258 | 6.1 | 20.9 | 0.00 | 0.00 | 0.00 | 36 | 1006.7 |
| 20260504213507 | 80 | 243 | 6.1 | 20.9 | 0.00 | 0.00 | 0.00 | 36 | 1006.7 |
| 20260504212827 | 80 | 231 | 7.8 | 19.1 | 0.00 | 0.00 | 0.00 | 34 | 1006.7 |
| 20260504212147 | 79 | 232 | 10.4 | 19.1 | 0.00 | 0.00 | 0.00 | 34 | 1006.7 |
| 20260504211507 | 79 | 255 | 7.0 | 20.0 | 0.00 | 0.00 | 0.00 | 34 | 1006.7 |
| 20260504210827 | 80 | 244 | 9.6 | 20.0 | 0.00 | 0.00 | 0.00 | 34 | 1006.7 |
| 20260504210147 | 80 | 246 | 7.0 | 16.5 | 0.00 | 0.00 | 0.00 | 34 | 1007.0 |
| 20260504205507 | 80 | 254 | 8.7 | 20.9 | 0.00 | 0.00 | 0.00 | 34 | 1007.0 |
| 20260504204827 | 79 | 229 | 13.0 | 20.9 | 0.00 | 0.00 | 0.00 | 34 | 1007.0 |
| 20260504204146 | 79 | 225 | 8.7 | 19.1 | 0.00 | 0.00 | 0.00 | 34 | 1007.0 |
| 20260504203507 | 79 | 249 | 8.7 | 17.4 | 0.00 | 0.00 | 0.00 | 35 | 1007.0 |
| 20260504202826 | 79 | 243 | 7.8 | 20.9 | 0.00 | 0.00 | 0.00 | 34 | 1007.4 |
| 20260504202612 | 80 | 259 | 11.3 | 20.9 | 0.00 | 0.00 | 0.00 | 34 | 1007.4 |
| 20260504201506 | 80 | 262 | 7.0 | 19.1 | 0.00 | 0.00 | 0.00 | 34 | 1007.4 |
| 20260504200826 | 80 | 223 | 12.2 | 19.1 | 0.00 | 0.00 | 0.00 | 34 | 1007.4 |
| 20260504200146 | 80 | 268 | 6.1 | 13.9 | 0.00 | 0.00 | 0.00 | 34 | 1007.4 |
| 20260504195506 | 80 | 251 | 5.2 | 22.6 | 0.00 | 0.00 | 0.00 | 35 | 1007.7 |
| 20260504195250 | 79 | 240 | 12.2 | 21.7 | 0.00 | 0.00 | 0.00 | 34 | 1007.7 |
| 20260504194146 | 79 | 243 | 8.7 | 19.1 | 0.00 | 0.00 | 0.00 | 34 | 1007.7 |
| 20260504193718 | 79 | 229 | 11.3 | 21.7 | 0.00 | 0.00 | 0.00 | 34 | 1007.7 |
| 20260504192826 | 79 | 213 | 11.3 | 21.7 | 0.00 | 0.00 | 0.00 | 34 | 1007.7 |
| 20260504192146 | 79 | 231 | 5.2 | 19.1 | 0.00 | 0.00 | 0.00 | 34 | 1008.1 |
| 20260504191506 | 79 | 244 | 8.7 | 17.4 | 0.00 | 0.00 | 0.00 | 35 | 1008.1 |
| 20260504190826 | 78 | 252 | 7.8 | 20.0 | 0.00 | 0.00 | 0.00 | 34 | 1008.1 |
| 20260504190146 | 78 | 259 | 9.6 | 17.4 | 0.00 | 0.00 | 0.00 | 34 | 1008.1 |
| 20260504185506 | 78 | 220 | 11.3 | 19.1 | 0.00 | 0.00 | 0.00 | 34 | 1008.1 |
| 20260504184826 | 78 | 232 | 7.0 | 22.6 | 0.00 | 0.00 | 0.00 | 35 | 1008.1 |
| 20260504184146 | 77 | 244 | 7.0 | 21.7 | 0.00 | 0.00 | 0.00 | 34 | 1008.1 |
| 20260504183506 | 78 | 258 | 7.8 | 22.6 | 0.00 | 0.00 | 0.00 | 34 | 1008.4 |
| 20260504182826 | 77 | 243 | 8.7 | 22.6 | 0.00 | 0.00 | 0.00 | 36 | 1008.4 |
| 20260504182608 | 78 | 234 | 7.8 | 18.2 | 0.00 | 0.00 | 0.00 | 36 | 1008.4 |
| 20260504181506 | 77 | 252 | 7.8 | 19.1 | 0.00 | 0.00 | 0.00 | 35 | 1008.4 |
| 20260504181036 | 77 | 245 | 8.7 | 20.9 | 0.00 | 0.00 | 0.00 | 35 | 1008.4 |
| 20260504180146 | 77 | 245 | 7.8 | 19.1 | 0.00 | 0.00 | 0.00 | 36 | 1008.8 |
| 20260504175718 | 77 | 233 | 11.3 | 26.1 | 0.00 | 0.00 | 0.00 | 36 | 1008.4 |
| 20260504174826 | 77 | 259 | 7.0 | 20.0 | 0.00 | 0.00 | 0.00 | 36 | 1008.4 |
| 20260504174146 | 76 | 227 | 9.6 | 19.1 | 0.00 | 0.00 | 0.00 | 36 | 1008.8 |
| 20260504173506 | 76 | 226 | 12.2 | 19.1 | 0.00 | 0.00 | 0.00 | 36 | 1008.8 |
| 20260504173035 | 76 | 244 | 5.2 | 20.9 | 0.00 | 0.00 | 0.00 | 37 | 1008.8 |
| 20260504172146 | 76 | 232 | 10.4 | 20.9 | 0.00 | 0.00 | 0.00 | 37 | 1008.8 |
| 20260504171716 | 75 | 236 | 11.3 | 20.9 | 0.00 | 0.00 | 0.00 | 38 | 1008.8 |
| 20260504171250 | 75 | 252 | 7.8 | 20.0 | 0.00 | 0.00 | 0.00 | 37 | 1008.8 |
| 20260504170146 | 75 | 234 | 8.7 | 19.1 | 0.00 | 0.00 | 0.00 | 37 | 1009.1 |
| 20260504160358 | 73 | 247 | 7.0 | 17.4 | 0.00 | 0.00 | 0.00 | 39 | 1009.8 |
| 20260504150146 | 70 | 248 | 6.1 | 16.5 | 0.00 | 0.00 | 0.00 | 42 | 1010.2 |
| 20260504140826 | 68 | 252 | 5.2 | 14.8 | 0.00 | 0.00 | 0.00 | 43 | 1010.5 |
| 20260504140146 | 67 | 250 | 5.2 | 12.2 | 0.00 | 0.00 | 0.00 | 46 | 1010.5 |
| 20260504130146 | 64 | 236 | 6.1 | 11.3 | 0.00 | 0.00 | 0.00 | 51 | 1010.5 |
| 20260504120146 | 61 | 277 | 2.6 | 8.7 | 0.00 | 0.00 | 0.00 | 56 | 1010.5 |
| 20260504110146 | 61 | 252 | 2.6 | 7.8 | 0.00 | 0.00 | 0.00 | 57 | 1009.8 |